SAS1879 ENZV-EKCH

Flight info

Callsign SAS1879
Flight time 0h 54m
Altitude 31000
Route BIVKI DCT ODRID DCT TESPI
Aircraft A319/M-SDE3FGHIRWY/LB1

Departure

Time 2026-05-07 19:07
Airport Stavanger Airport, Sola (ENZV)

Arrival

Time 2026-05-07 20:01
Airport Copenhagen Kastrup Airport (EKCH)
Time Latitude Longitude Altitude Speed Heading
2026-05-07 18:45 58.88161 5.63066 26 ft 0 kts 315°
2026-05-07 18:51 58.88161 5.63067 26 ft 0 kts 315°
2026-05-07 18:57 58.88150 5.63087 29 ft 4 kts 315°
2026-05-07 18:57 58.88131 5.63123 26 ft 4 kts 315°
2026-05-07 18:58 58.88113 5.63161 26 ft 4 kts 305°
2026-05-07 18:58 58.88101 5.63205 27 ft 4 kts 274°
2026-05-07 18:58 58.88105 5.63240 28 ft 1 kts 221°
2026-05-07 18:58 58.88106 5.63241 28 ft 1 kts 221°
2026-05-07 19:02 58.88105 5.63241 28 ft 0 kts 221°
2026-05-07 19:02 58.88088 5.63215 30 ft 6 kts 211°
2026-05-07 19:03 58.88044 5.63215 29 ft 7 kts 152°
2026-05-07 19:03 58.88003 5.63306 30 ft 10 kts 129°
2026-05-07 19:03 58.87948 5.63370 32 ft 10 kts 186°
2026-05-07 19:03 58.87875 5.63312 31 ft 13 kts 204°
2026-05-07 19:04 58.87782 5.63291 31 ft 15 kts 183°
2026-05-07 19:04 58.87671 5.63294 31 ft 17 kts 177°
2026-05-07 19:04 58.87540 5.63299 31 ft 20 kts 179°
2026-05-07 19:04 58.87390 5.63304 31 ft 23 kts 179°
2026-05-07 19:05 58.87224 5.63309 31 ft 25 kts 179°
2026-05-07 19:05 58.87069 5.63313 33 ft 18 kts 178°
2026-05-07 19:05 58.86960 5.63444 32 ft 16 kts 128°
2026-05-07 19:05 58.86952 5.63635 36 ft 13 kts 90°
2026-05-07 19:06 58.86979 5.63800 36 ft 14 kts 28°
2026-05-07 19:06 58.87080 5.63801 35 ft 16 kts 359°
2026-05-07 19:06 58.87406 5.63792 34 ft 78 kts 359°
2026-05-07 19:07 58.88156 5.63768 32 ft 135 kts 359°
2026-05-07 19:07 58.89180 5.63780 495 ft 141 kts
2026-05-07 19:07 58.90126 5.63828 1192 ft 132 kts
2026-05-07 19:07 58.91061 5.63793 1475 ft 146 kts 358°
2026-05-07 19:08 58.92079 5.63736 1851 ft 151 kts 359°
2026-05-07 19:08 58.93207 5.63681 2078 ft 174 kts 359°
2026-05-07 19:08 58.94538 5.63621 2213 ft 210 kts 359°
2026-05-07 19:08 58.96091 5.63560 2694 ft 235 kts 359°
2026-05-07 19:09 58.97822 5.63565 3274 ft 260 kts
2026-05-07 19:09 58.99532 5.64787 4100 ft 267 kts 38°
2026-05-07 19:09 59.00746 5.67475 5099 ft 266 kts 68°
2026-05-07 19:09 59.01140 5.70924 6071 ft 263 kts 96°
2026-05-07 19:10 59.00639 5.74302 6966 ft 263 kts 124°
2026-05-07 19:10 58.99384 5.76789 7831 ft 263 kts 152°
2026-05-07 19:10 58.97694 5.78202 8750 ft 266 kts 162°
2026-05-07 19:10 58.95947 5.79495 9677 ft 271 kts 162°
2026-05-07 19:11 58.94157 5.80816 10407 ft 283 kts 162°
2026-05-07 19:11 58.92233 5.82230 10715 ft 307 kts 162°
2026-05-07 19:11 58.90168 5.83753 11091 ft 325 kts 162°
2026-05-07 19:11 58.88026 5.85348 11742 ft 333 kts 161°
2026-05-07 19:12 58.85846 5.86979 12485 ft 338 kts 161°
2026-05-07 19:12 58.83656 5.88624 13208 ft 344 kts 161°
2026-05-07 19:12 58.81409 5.90311 13925 ft 349 kts 161°
2026-05-07 19:12 58.79126 5.92022 14567 ft 354 kts 162°
2026-05-07 19:13 58.76821 5.93826 15227 ft 360 kts 156°
2026-05-07 19:13 58.74769 5.96692 15866 ft 371 kts 138°
2026-05-07 19:13 58.72986 6.00322 16541 ft 375 kts 136°
2026-05-07 19:13 58.71200 6.04028 17205 ft 379 kts 136°
2026-05-07 19:14 58.69397 6.07786 17862 ft 383 kts 136°
2026-05-07 19:14 58.67601 6.11530 18497 ft 387 kts 136°
2026-05-07 19:14 58.65766 6.15346 19065 ft 391 kts 136°
2026-05-07 19:14 58.63904 6.19199 19631 ft 395 kts 136°
2026-05-07 19:15 58.62021 6.23079 20192 ft 399 kts 136°
2026-05-07 19:15 58.60114 6.26996 20747 ft 404 kts 136°
2026-05-07 19:15 58.58181 6.30958 21271 ft 408 kts 136°
2026-05-07 19:15 58.56229 6.34952 21802 ft 413 kts 136°
2026-05-07 19:16 58.54254 6.38984 22331 ft 417 kts 136°
2026-05-07 19:16 58.52250 6.43072 22833 ft 421 kts 136°
2026-05-07 19:16 58.50261 6.47125 23334 ft 425 kts 136°
2026-05-07 19:16 58.48227 6.51260 23796 ft 429 kts 136°
2026-05-07 19:17 58.46172 6.55426 24211 ft 432 kts 136°
2026-05-07 19:17 58.44094 6.59635 24662 ft 435 kts 136°
2026-05-07 19:17 58.42015 6.63850 25103 ft 437 kts 136°
2026-05-07 19:17 58.39927 6.68075 25530 ft 439 kts 136°
2026-05-07 19:18 58.37817 6.72334 25962 ft 442 kts 136°
2026-05-07 19:18 58.35702 6.76582 26384 ft 444 kts 136°
2026-05-07 19:18 58.33558 6.80873 26809 ft 446 kts 136°
2026-05-07 19:18 58.31438 6.85110 27215 ft 449 kts 136°
2026-05-07 19:19 58.29275 6.89432 27614 ft 452 kts 136°
2026-05-07 19:19 58.27103 6.93769 28054 ft 453 kts 136°
2026-05-07 19:19 58.24928 6.98106 28507 ft 454 kts 136°
2026-05-07 19:19 58.22741 7.02457 28909 ft 456 kts 136°
2026-05-07 19:20 58.20547 7.06817 29298 ft 458 kts 136°
2026-05-07 19:20 58.18339 7.11197 29676 ft 460 kts 136°
2026-05-07 19:20 58.16118 7.15592 30052 ft 463 kts 136°
2026-05-07 19:20 58.13880 7.20010 30383 ft 465 kts 136°
2026-05-07 19:21 58.11661 7.24377 30682 ft 467 kts 136°
2026-05-07 19:21 58.09405 7.28814 30981 ft 469 kts 136°
2026-05-07 19:21 58.07140 7.33260 31119 ft 467 kts 136°
2026-05-07 19:21 58.04917 7.37622 31143 ft 454 kts 136°
2026-05-07 19:22 58.00546 7.46160 31149 ft 450 kts 136°
2026-05-07 19:22 57.96220 7.54572 31145 ft 448 kts 136°
2026-05-07 19:23 57.91883 7.62974 31150 ft 446 kts 136°
2026-05-07 19:23 57.87570 7.71286 31150 ft 446 kts 136°
2026-05-07 19:24 57.83225 7.79635 31147 ft 445 kts 136°
2026-05-07 19:24 57.78888 7.87963 31143 ft 445 kts 136°
2026-05-07 19:25 57.74585 7.96195 31136 ft 445 kts 136°
2026-05-07 19:25 57.70236 8.04477 31135 ft 446 kts 136°
2026-05-07 19:26 57.65880 8.12724 31121 ft 446 kts 136°
2026-05-07 19:26 57.61517 8.20943 31132 ft 445 kts 136°
2026-05-07 19:27 57.57156 8.29160 31138 ft 445 kts 136°
2026-05-07 19:27 57.52788 8.37361 31141 ft 444 kts 136°
2026-05-07 19:28 57.48456 8.45458 31131 ft 444 kts 136°
2026-05-07 19:28 57.44092 8.53589 31133 ft 445 kts 136°
2026-05-07 19:29 57.39707 8.61723 31132 ft 445 kts 136°
2026-05-07 19:29 57.35319 8.69842 31133 ft 445 kts 136°
2026-05-07 19:30 57.30964 8.77874 31138 ft 444 kts 136°
2026-05-07 19:30 57.27317 8.84577 31145 ft 444 kts 136°
2026-05-07 19:31 57.22926 8.92598 31149 ft 443 kts 136°
2026-05-07 19:31 57.17821 9.01898 31145 ft 443 kts 136°
2026-05-07 19:32 57.14170 9.08539 31145 ft 442 kts 136°
2026-05-07 19:32 57.09775 9.16512 31145 ft 442 kts 136°
2026-05-07 19:33 57.05391 9.24420 30598 ft 440 kts 136°
2026-05-07 19:33 57.03222 9.28316 29802 ft 442 kts 136°
2026-05-07 19:33 57.01016 9.32268 28947 ft 443 kts 136°
2026-05-07 19:34 56.98821 9.36195 28309 ft 439 kts 136°
2026-05-07 19:34 56.96641 9.40092 27700 ft 435 kts 136°
2026-05-07 19:34 56.94482 9.43949 27077 ft 432 kts 136°
2026-05-07 19:34 56.92335 9.47783 26485 ft 428 kts 136°
2026-05-07 19:35 56.90214 9.51572 25893 ft 425 kts 136°
2026-05-07 19:35 56.88105 9.55335 25351 ft 421 kts 136°
2026-05-07 19:35 56.86005 9.59077 25141 ft 421 kts 136°
2026-05-07 19:35 56.83897 9.62818 25143 ft 422 kts 136°
2026-05-07 19:36 56.81815 9.66501 25147 ft 422 kts 136°
2026-05-07 19:36 56.79695 9.70242 25150 ft 422 kts 136°
2026-05-07 19:36 56.77582 9.73964 25155 ft 422 kts 136°
2026-05-07 19:36 56.75467 9.77689 25155 ft 422 kts 136°
2026-05-07 19:37 56.73347 9.81414 25142 ft 422 kts 136°
2026-05-07 19:37 56.71257 9.85071 25147 ft 422 kts 136°
2026-05-07 19:37 56.69142 9.88770 25149 ft 421 kts 136°
2026-05-07 19:37 56.67035 9.92459 25137 ft 420 kts 136°
2026-05-07 19:38 56.64928 9.96148 25147 ft 421 kts 136°
2026-05-07 19:38 56.62812 9.99846 25144 ft 421 kts 136°
2026-05-07 19:38 56.60700 10.03525 25150 ft 421 kts 136°
2026-05-07 19:38 56.58578 10.07209 25153 ft 421 kts 136°
2026-05-07 19:39 56.56461 10.10877 25148 ft 421 kts 136°
2026-05-07 19:39 56.54337 10.14549 25149 ft 421 kts 136°
2026-05-07 19:39 56.52212 10.18215 25152 ft 421 kts 136°
2026-05-07 19:39 56.50084 10.21879 25146 ft 421 kts 135°
2026-05-07 19:40 56.48104 10.25767 24905 ft 418 kts 131°
2026-05-07 19:40 56.46192 10.29702 24395 ft 415 kts 131°
2026-05-07 19:40 56.44317 10.33650 23877 ft 412 kts 130°
2026-05-07 19:40 56.42464 10.37578 23300 ft 409 kts 130°
2026-05-07 19:41 56.40623 10.41469 22724 ft 406 kts 130°
2026-05-07 19:41 56.38814 10.45267 22203 ft 401 kts 131°
2026-05-07 19:41 56.36989 10.49079 21695 ft 398 kts 131°
2026-05-07 19:41 56.35187 10.52825 21178 ft 394 kts 131°
2026-05-07 19:42 56.33389 10.56548 20648 ft 391 kts 131°
2026-05-07 19:42 56.31604 10.60234 20126 ft 388 kts 131°
2026-05-07 19:42 56.29855 10.63841 19602 ft 385 kts 131°
2026-05-07 19:42 56.28102 10.67457 19086 ft 382 kts 131°
2026-05-07 19:43 56.26361 10.71043 18566 ft 379 kts 131°
2026-05-07 19:43 56.24636 10.74592 17977 ft 376 kts 131°
2026-05-07 19:43 56.22916 10.78121 17389 ft 372 kts 131°
2026-05-07 19:43 56.21212 10.81616 16810 ft 369 kts 131°
2026-05-07 19:44 56.19526 10.85071 16248 ft 365 kts 131°
2026-05-07 19:44 56.17875 10.88454 15698 ft 362 kts 131°
2026-05-07 19:44 56.16221 10.91841 15157 ft 359 kts 131°
2026-05-07 19:44 56.14581 10.95200 14616 ft 356 kts 131°
2026-05-07 19:45 56.12954 10.98530 14078 ft 353 kts 131°
2026-05-07 19:45 56.11340 11.01832 13497 ft 350 kts 131°
2026-05-07 19:45 56.09735 11.05113 13182 ft 349 kts 131°
2026-05-07 19:45 56.08131 11.08392 13148 ft 348 kts 131°
2026-05-07 19:46 56.06553 11.11616 13149 ft 348 kts 131°
2026-05-07 19:46 56.04961 11.14868 13151 ft 347 kts 131°
2026-05-07 19:46 56.03363 11.18128 13147 ft 347 kts 131°
2026-05-07 19:46 56.01769 11.21379 13160 ft 347 kts 131°
2026-05-07 19:47 56.00186 11.24636 13099 ft 345 kts 131°
2026-05-07 19:47 55.98623 11.27862 12583 ft 342 kts 131°
2026-05-07 19:47 55.97068 11.31060 12053 ft 338 kts 131°
2026-05-07 19:47 55.95547 11.34176 11555 ft 334 kts 131°
2026-05-07 19:48 55.94024 11.37282 11058 ft 330 kts 131°
2026-05-07 19:48 55.92509 11.40352 10542 ft 328 kts 131°
2026-05-07 19:48 55.91029 11.43335 10402 ft 313 kts 131°
2026-05-07 19:48 55.89611 11.46186 10274 ft 300 kts 131°
2026-05-07 19:49 55.88252 11.48913 10153 ft 289 kts 131°
2026-05-07 19:49 55.86929 11.51562 9903 ft 283 kts 131°
2026-05-07 19:49 55.85625 11.54169 9542 ft 280 kts 131°
2026-05-07 19:49 55.84343 11.56727 9164 ft 279 kts 131°
2026-05-07 19:50 55.83051 11.59302 8792 ft 278 kts 131°
2026-05-07 19:50 55.81762 11.61867 8422 ft 277 kts 131°
2026-05-07 19:50 55.80473 11.64427 8056 ft 276 kts 131°
2026-05-07 19:50 55.79190 11.66972 7691 ft 276 kts 131°
2026-05-07 19:51 55.77909 11.69509 7339 ft 275 kts 131°
2026-05-07 19:51 55.76633 11.72031 6988 ft 274 kts 131°
2026-05-07 19:51 55.75361 11.74544 6638 ft 273 kts 131°
2026-05-07 19:51 55.74091 11.77046 6281 ft 273 kts 131°
2026-05-07 19:52 55.72818 11.79538 5914 ft 272 kts 131°
2026-05-07 19:52 55.71544 11.82015 5562 ft 271 kts 131°
2026-05-07 19:52 55.70298 11.84445 5226 ft 269 kts 131°
2026-05-07 19:52 55.69039 11.86902 5012 ft 268 kts 131°
2026-05-07 19:53 55.67778 11.89351 5010 ft 269 kts 131°
2026-05-07 19:53 55.66512 11.91804 5008 ft 270 kts 131°
2026-05-07 19:53 55.65245 11.94257 5010 ft 270 kts 131°
2026-05-07 19:53 55.63976 11.96711 5010 ft 270 kts 131°
2026-05-07 19:54 55.62707 11.99165 5010 ft 270 kts 131°
2026-05-07 19:54 55.61441 12.01613 5010 ft 270 kts 131°
2026-05-07 19:54 55.60171 12.04066 5011 ft 270 kts 131°
2026-05-07 19:54 55.58905 12.06510 5010 ft 270 kts 131°
2026-05-07 19:55 55.57636 12.08960 5010 ft 270 kts 131°
2026-05-07 19:55 55.56383 12.11378 5010 ft 270 kts 131°
2026-05-07 19:55 55.55107 12.13808 5010 ft 270 kts 131°
2026-05-07 19:55 55.53835 12.16244 4899 ft 268 kts 131°
2026-05-07 19:56 55.52577 12.18669 4544 ft 267 kts 131°
2026-05-07 19:56 55.51324 12.21091 4196 ft 266 kts 131°
2026-05-07 19:56 55.50080 12.23503 3857 ft 265 kts 131°
2026-05-07 19:56 55.48848 12.25903 3524 ft 263 kts 131°
2026-05-07 19:57 55.47624 12.28298 3191 ft 262 kts 131°
2026-05-07 19:57 55.46606 12.30925 3003 ft 259 kts 114°
2026-05-07 19:57 55.46101 12.33915 3004 ft 259 kts 96°
2026-05-07 19:57 55.46125 12.37067 3005 ft 257 kts 78°
2026-05-07 19:58 55.46675 12.40046 2958 ft 254 kts 62°
2026-05-07 19:58 55.47679 12.42567 2610 ft 251 kts 44°
2026-05-07 19:58 55.48983 12.44610 2236 ft 250 kts 39°
2026-05-07 19:58 55.50295 12.46619 2013 ft 249 kts 40°
2026-05-07 19:59 55.51583 12.48590 1975 ft 239 kts 40°
2026-05-07 19:59 55.52808 12.50475 1732 ft 226 kts 40°
2026-05-07 19:59 55.53960 12.52249 1449 ft 214 kts 40°
2026-05-07 19:59 55.55038 12.53909 1162 ft 203 kts 40°
2026-05-07 20:00 55.56048 12.55464 920 ft 183 kts 39°
2026-05-07 20:00 55.56957 12.56865 651 ft 164 kts 40°
2026-05-07 20:00 55.57790 12.58150 440 ft 155 kts 40°
2026-05-07 20:00 55.58587 12.59378 237 ft 147 kts 40°
2026-05-07 20:01 55.59343 12.60535 58 ft 141 kts 39°
2026-05-07 20:01 55.60010 12.61566 28 ft 108 kts 41°
2026-05-07 20:01 55.60443 12.62231 25 ft 59 kts 41°
2026-05-07 20:01 55.60684 12.62606 26 ft 46 kts 41°
2026-05-07 20:02 55.60894 12.62837 25 ft 24 kts 18°
2026-05-07 20:02 55.61073 12.62903 24 ft 23 kts 11°
2026-05-07 20:02 55.61222 12.63062 26 ft 27 kts 41°
2026-05-07 20:02 55.61352 12.63270 24 ft 27 kts 41°
2026-05-07 20:03 55.61507 12.63505 24 ft 32 kts 41°
2026-05-07 20:03 55.61613 12.63672 25 ft 17 kts 41°
2026-05-07 20:03 55.61712 12.63823 24 ft 21 kts 41°
2026-05-07 20:03 55.61824 12.63997 24 ft 15 kts 41°
2026-05-07 20:04 55.61887 12.64082 26 ft 1 kts 27°
2026-05-07 20:04 55.61909 12.64101 24 ft 6 kts 27°
2026-05-07 20:04 55.61962 12.64147 24 ft 13 kts 25°
2026-05-07 20:04 55.62077 12.64242 26 ft 23 kts 26°
2026-05-07 20:05 55.62194 12.64340 22 ft 20 kts 25°
2026-05-07 20:05 55.62290 12.64402 23 ft 13 kts 14°
2026-05-07 20:05 55.62377 12.64441 24 ft 11 kts 14°
2026-05-07 20:05 55.62451 12.64477 24 ft 15 kts 15°
2026-05-07 20:06 55.62518 12.64424 24 ft 10 kts 303°
2026-05-07 20:06 55.62572 12.64281 25 ft 16 kts 307°
2026-05-07 20:06 55.62658 12.64307 25 ft 16 kts 23°
2026-05-07 20:06 55.62722 12.64379 24 ft 7 kts 89°
2026-05-07 20:07 55.62718 12.64423 24 ft 4 kts 101°
2026-05-07 20:07 55.62716 12.64433 24 ft 3 kts 102°
2026-05-07 20:07 55.62714 12.64450 24 ft 0 kts 103°
2026-05-07 20:07 55.62712 12.64464 24 ft 0 kts 103°
2026-05-07 20:08 55.62712 12.64467 24 ft 0 kts 102°